Location: *
(29.1167°S, 130.0000°E)
Time: 10:38:02
(UTC+00:00)

PSLV R/B - Pass Details

Date: 21 July 2019
Orbit: 313 x 323 km, 41.0° (Epoch: 19 August)

Event Time Altitude Azimuth Distance (km) Brightness Sun altitude
Rises 09:30:31 0° 235° (SW) 2,075 7.4 -10.7°
Reaches altitude 10° 09:32:32 10° 231° (SW) 1,241 6.1 -11.1°
Maximum altitude 09:35:16 56° 151° (SSE) 391 2.8 -11.6°
Enters shadow 09:37:04 19° 75° (ENE) 864 4.3 -12.0°
